(257693) = 1999 WQ12

Discovered at Kitt Peak on 1999-11-29 by Spacewatch.

Orbit

Orbit type: Main Belt

Note: WebGL enabled browser required.

epoch2023-02-25.0
epoch JD2460000.5
perihelion date2021-06-11.84270
perihelion JD2459377.34270
argument of perihelion (°)152.19290
ascending node (°)214.48256
inclination (°)4.80658
eccentricity0.1971279
perihelion distance (AU)1.8942335
Tisserand w.r.t. Jupiter3.5
ΔV w.r.t. Earth (km/sec)8.7
semimajor axis (AU)2.3593218
mean anomaly (°)169.48090
mean daily motion (°/day)0.27197130
aphelion distance (AU)2.824
period (years)3.62
P-vector [x]0.99229172
P-vector [y]0.09234510
P-vector [z]0.08264092
Q-vector [x]-0.11448422
Q-vector [y]0.93839123
Q-vector [z]0.32606020
absolute magnitude17.68
phase slope0.15
uncertainty0
referenceMPEC 2023-F158
observations used258
oppositions13
arc length (days)8565
first opposition used1999
last opposition used2023
residual rms (arc-secs)0.74
perturbers coarse indicatorM-v
perturbers precise indicator003Ek
first observation date used1999-10-13.0
last observation date used2023-03-26.0
computer nameMPCLINUX
JD of orbit computation2456494.366319
perihelion JD uncertainty (days)1.3416E-04
argument of perihelion uncertainty (°)9.3102E-05
ascending node uncertainty (°)8.3706E-05
inclination uncertainty (°)1.0933E-05
eccentricity uncertainty 8.3797E-08
perihelion distance uncertainty (AU)1.9751E-07
Minimum Orbit Intersection Distances (in AU)
for orbit epoch: 2460000.5, reference: E2023-FF8
Mercury1.53953
Venus1.17335
Earth0.89302
Mars0.48815
Jupiter2.63823
Saturn6.6099
Uranus15.6452
Neptune27.8327

Observations

266 total observations over interval: 1999 10 13.25317 – 2023 03 26.420078
These data are available for download (format description).

Date (UT) J2000 RA J2000 Dec Magn Location Ref
1999 10 13.25317 00 57 09.21 +09 14 37.9 19.7   704 – Lincoln Laboratory ETS, New Mexico MPS 14045
1999 10 13.26936 00 57 08.43 +09 14 28.0 20.2   704 – Lincoln Laboratory ETS, New Mexico MPS 14045
1999 10 13.28520 00 57 07.69 +09 14 18.5 19.7   704 – Lincoln Laboratory ETS, New Mexico MPS 14045
1999 10 13.30129 00 57 06.85 +09 14 09.5 19.9   704 – Lincoln Laboratory ETS, New Mexico MPS 14045
1999 10 13.32161 00 57 05.98 +09 13 58.4 19.7   704 – Lincoln Laboratory ETS, New Mexico MPS 14045
1999 10 19.19156 00 52 55.37 +08 19 39.7 19.2   704 – Lincoln Laboratory ETS, New Mexico MPS 14046
1999 10 19.20535 00 52 54.85 +08 19 33.0 19.5   704 – Lincoln Laboratory ETS, New Mexico MPS 14046
1999 10 19.21908 00 52 54.15 +08 19 25.9 19.7   704 – Lincoln Laboratory ETS, New Mexico MPS 14046
1999 10 19.23289 00 52 53.54 +08 19 17.4 19.5   704 – Lincoln Laboratory ETS, New Mexico MPS 14046
1999 10 19.24668 00 52 53.01 +08 19 09.6 19.6   704 – Lincoln Laboratory ETS, New Mexico MPS 14046
1999 11 29.09404 00 47 51.26 +04 48 07.0 20.8 V 691 – Steward Observatory, Kitt Peak-Spacewatch MPS 7921
1999 11 29.11519 00 47 51.85 +04 48 06.8 21.1 V 691 – Steward Observatory, Kitt Peak-Spacewatch MPS 7921
1999 11 29.14052 00 47 52.59 +04 48 06.3 21.3 V 691 – Steward Observatory, Kitt Peak-Spacewatch MPS 7921
1999 12 03.07173 00 50 06.67 +04 49 24.3 21.1 V 691 – Steward Observatory, Kitt Peak-Spacewatch MPS 7921
1999 12 03.09271 00 50 07.43 +04 49 25.2 21.5 V 691 – Steward Observatory, Kitt Peak-Spacewatch MPS 7921
1999 12 03.11391 00 50 08.17 +04 49 26.0 21.3 V 691 – Steward Observatory, Kitt Peak-Spacewatch MPS 7921
1999 12 08.07313 00 53 34.60 +04 56 10.6 21.4 V 691 – Steward Observatory, Kitt Peak-Spacewatch MPS 7921
1999 12 08.09436 00 53 35.51 +04 56 13.5 21.7 V 691 – Steward Observatory, Kitt Peak-Spacewatch MPS 7921
1999 12 08.11556 00 53 36.46 +04 56 15.7 21.6 V 691 – Steward Observatory, Kitt Peak-Spacewatch MPS 7921
2006 08 14.29202 20 57 50.90 -07 26 25.5 19.1 R 644 – Palomar Mountain/NEAT MPS 182400
2006 08 14.31288 20 57 49.77 -07 26 31.7 19.6 R 644 – Palomar Mountain/NEAT MPS 182400
2006 08 14.33374 20 57 48.57 -07 26 38.5 19.7 R 644 – Palomar Mountain/NEAT MPS 182400
2006 08 14.48704 20 57 40.89 -07 27 14.7 19.4 V E12 – Siding Spring Survey MPS 176812
2006 08 14.49594 20 57 40.42 -07 27 17.4 19.6 V E12 – Siding Spring Survey MPS 176812
2006 08 14.51972 20 57 39.02 -07 27 24.8 19.0 V E12 – Siding Spring Survey MPS 176812
2006 08 18.25217 20 54 27.63 -07 47 00.0 19.3 R 644 – Palomar Mountain/NEAT MPS 176812
2006 08 18.26313 20 54 27.05 -07 47 03.9 19.3 R 644 – Palomar Mountain/NEAT MPS 176812
2006 08 18.27393 20 54 26.49 -07 47 07.4 19.2 R 644 – Palomar Mountain/NEAT MPS 176812
2006 09 28.11565 20 43 29.31 -11 06 16.5 20.4 V G96 – Mt. Lemmon Survey MPS 182420
2006 09 28.12221 20 43 29.46 -11 06 17.3 20.5 V G96 – Mt. Lemmon Survey MPS 182420
2006 09 28.12884 20 43 29.60 -11 06 18.5 20.3 V G96 – Mt. Lemmon Survey MPS 182420
2006 09 28.13553 20 43 29.78 -11 06 19.9 20.6 V G96 – Mt. Lemmon Survey MPS 182420
2006 11 17.07184 21 40 17.83 -10 10 59.3 21.2 V G96 – Mt. Lemmon Survey MPS 188301
2006 11 17.07839 21 40 18.48 -10 10 57.3 21.3 V G96 – Mt. Lemmon Survey MPS 188301
2006 11 17.08500 21 40 19.09 -10 10 55.5 21.2 V G96 – Mt. Lemmon Survey MPS 188301
2006 11 17.09173 21 40 19.74 -10 10 53.6 21.4 V G96 – Mt. Lemmon Survey MPS 188301
2008 02 09.32603 09 18 28.11 +07 53 32.1 20.9 V G96 – Mt. Lemmon Survey MPS 237348
2008 02 09.33372 09 18 27.64 +07 53 34.5 20.8 V G96 – Mt. Lemmon Survey MPS 237348
2008 02 09.34140 09 18 27.14 +07 53 36.8 20.7 V G96 – Mt. Lemmon Survey MPS 237348
2008 02 09.34910 09 18 26.71 +07 53 39.9 20.8 V G96 – Mt. Lemmon Survey MPS 237348
2008 02 09.39010 09 18 24.15 +07 53 52.8 20.7 V G96 – Mt. Lemmon Survey MPS 237348
2008 02 09.39875 09 18 23.61 +07 53 55.6 20.7 V G96 – Mt. Lemmon Survey MPS 237348
2008 02 09.40729 09 18 23.07 +07 53 58.6 21.1 V G96 – Mt. Lemmon Survey MPS 237348
2008 02 09.41580 09 18 22.53 +07 54 01.5 21.1 V G96 – Mt. Lemmon Survey MPS 237348
2010 11 03.30873 03 14 52.54 +16 09 20.9 18.6 V G96 – Mt. Lemmon Survey MPS 353663
2010 11 03.31617 03 14 52.08 +16 09 17.8 19.0 V G96 – Mt. Lemmon Survey MPS 353663
2010 11 03.32363 03 14 51.64 +16 09 14.3 19.3 V G96 – Mt. Lemmon Survey MPS 353663
2010 11 03.33111 03 14 51.21 +16 09 10.9 19.1 V G96 – Mt. Lemmon Survey MPS 353663
2010 11 03.91205 03 14 19.88 +16 04 45.5 18.6 V J75 – OAM Observatory, La Sagra MPS 353663
2010 11 03.92399 03 14 19.19 +16 04 40.0 19.2 V J75 – OAM Observatory, La Sagra MPS 353663
2010 11 03.93594 03 14 18.46 +16 04 34.1 18.9 V J75 – OAM Observatory, La Sagra MPS 353663
2010 11 05.23294 03 13 07.01 +15 54 43.1 19.9   704 – Lincoln Laboratory ETS, New Mexico MPS 355182
2010 11 05.24538 03 13 06.18 +15 54 38.1 20.0   704 – Lincoln Laboratory ETS, New Mexico MPS 355182
2010 11 05.25781 03 13 05.43 +15 54 33.1 20.0   704 – Lincoln Laboratory ETS, New Mexico MPS 355182
2010 11 05.27024 03 13 04.68 +15 54 26.4 19.8   704 – Lincoln Laboratory ETS, New Mexico MPS 355182
2010 11 05.28272 03 13 04.00 +15 54 20.6 20.2   704 – Lincoln Laboratory ETS, New Mexico MPS 355182
2010 11 09.19346 03 09 25.23 +15 24 31.2 18.7 V 703 – Catalina Sky Survey MPS 355182
2010 11 09.21576 03 09 24.01 +15 24 19.8 19.3 V 703 – Catalina Sky Survey MPS 355182
2010 11 09.22032 03 09 23.72 +15 24 18.3 18.9 V 703 – Catalina Sky Survey MPS 355182
2010 11 09.22494 03 09 23.50 +15 24 16.7 19.0 V 703 – Catalina Sky Survey MPS 355182
2010 11 09.23083 03 09 23.18 +15 24 13.8 19.1 V 703 – Catalina Sky Survey MPS 355182
2010 11 09.23550 03 09 22.82 +15 24 11.2 18.9 V 703 – Catalina Sky Survey MPS 355182
2010 11 09.24009 03 09 22.57 +15 24 09.6 19.2 V 703 – Catalina Sky Survey MPS 355182
2010 11 09.24471 03 09 22.28 +15 24 07.4 18.9 V 703 – Catalina Sky Survey MPS 355182
2010 11 10.31632 03 08 21.87 +15 15 59.4 19.0 V G96 – Mt. Lemmon Survey MPS 355182
2010 11 10.32149 03 08 21.55 +15 15 56.9 19.1 V G96 – Mt. Lemmon Survey MPS 355182
2010 11 10.32665 03 08 21.22 +15 15 54.6 19.1 V G96 – Mt. Lemmon Survey MPS 355182
2010 11 10.33188 03 08 20.90 +15 15 52.3 19.1 V G96 – Mt. Lemmon Survey MPS 355182
2010 12 02.28244 02 51 05.40 +12 55 33.2 20.3 V 703 – Catalina Sky Survey MPS 358686
2010 12 02.28759 02 51 05.14 +12 55 31.3 19.6 V 703 – Catalina Sky Survey MPS 358686
2010 12 02.29279 02 51 04.96 +12 55 28.1 20.2 V 703 – Catalina Sky Survey MPS 358686
2010 12 02.29790 02 51 04.75 +12 55 27.9 19.9 V 703 – Catalina Sky Survey MPS 358686
2012 03 14.41061 11 30 13.96 -02 03 58.2 21.3 V G96 – Mt. Lemmon Survey MPS 417097
2012 03 14.41178 11 30 13.82 -02 03 57.1 21.6 V G96 – Mt. Lemmon Survey MPS 417098
2012 03 14.41295 11 30 13.78 -02 03 57.4 20.7 V G96 – Mt. Lemmon Survey MPS 417098
2012 03 14.41414 11 30 13.71 -02 03 56.7 22.1 V G96 – Mt. Lemmon Survey MPS 417098
2013 07 02.38305 18 01 08.257 -15 59 37.63 20.6 g F51 – Pan-STARRS 1, Haleakala MPS 471721
2013 07 02.39356 18 01 07.571 -15 59 36.94 20.9 g F51 – Pan-STARRS 1, Haleakala MPS 471721
2014 11 29.50184 08 03 28.299 +13 52 35.66 20.9 w F51 – Pan-STARRS 1, Haleakala MPS 551167
2014 11 29.51444 08 03 28.147 +13 52 33.62 21.0 w F51 – Pan-STARRS 1, Haleakala MPS 551167
2014 11 29.53964 08 03 27.861 +13 52 29.73 21.1 w F51 – Pan-STARRS 1, Haleakala MPS 551167
2014 12 18.56520 07 54 26.885 +13 22 28.69 20.6 r F51 – Pan-STARRS 1, Haleakala MPS 557854
2014 12 18.57648 07 54 26.342 +13 22 28.58 20.5 r F51 – Pan-STARRS 1, Haleakala MPS 557854
2014 12 18.58764 07 54 25.799 +13 22 28.23 20.7 r F51 – Pan-STARRS 1, Haleakala MPS 557854
2014 12 18.59873 07 54 25.273 +13 22 27.95 20.5 r F51 – Pan-STARRS 1, Haleakala MPS 557854
2015 02 19.24702 07 00 58.183 +15 35 33.89 21.1 w F51 – Pan-STARRS 1, Haleakala MPS 582763
2015 02 19.25908 07 00 57.988 +15 35 35.92 21.1 w F51 – Pan-STARRS 1, Haleakala MPS 582763
2015 02 19.27112 07 00 57.807 +15 35 38.03 21.3 w F51 – Pan-STARRS 1, Haleakala MPS 582763
2015 03 18.30309 07 05 37.377 +16 34 02.47 21.7 w F51 – Pan-STARRS 1, Haleakala MPS 591595
2015 03 18.31544 07 05 37.722 +16 34 03.36 21.8 w F51 – Pan-STARRS 1, Haleakala MPS 591595
2015 03 18.32786 07 05 38.144 +16 34 04.47 21.7 w F51 – Pan-STARRS 1, Haleakala MPS 591595
